Date,TemperatureHighF,TemperatureAvgF,TemperatureLowF,DewpointHighF,DewpointAvgF,DewpointLowF,HumidityHigh,HumidityAvg,HumidityLow,PressureMaxIn,PressureMinIn,WindSpeedMaxMPH,WindSpeedAvgMPH,GustSpeedMaxMPH,PrecipitationSumIn
2014-1-1,42,31,20,30,24,16,88,78,62,30.08,29.83,7,3,0,0.00
2014-1-2,30,21,7,27,18,3,92,87,82,29.97,29.58,24,11,0,0.00
2014-1-3,14,4,-4,3,-2,-8,84,77,59,30.24,29.99,14,4,0,0.00
2014-1-4,34,21,3,23,13,-1,84,71,61,30.05,29.84,10,4,0,0.04
2014-1-5,43,35,24,41,30,22,93,82,68,29.87,29.23,23,4,0,0.36
2014-1-6,24,1,-9,21,-4,-16,88,77,71,30.09,29.41,22,13,0,0.00
2014-1-7,10,1,-9,4,-6,-15,80,73,65,30.21,30.09,17,8,0,0.00
2014-1-8,28,18,7,20,11,2,84,75,67,30.24,30.14,7,3,0,0.00
2014-1-9,35,25,16,29,22,14,93,87,68,30.29,30.08,6,3,0,0.00
2014-1-10,47,38,31,45,36,29,95,93,89,30.08,29.56,9,3,0,0.11
2014-1-11,52,43,34,48,40,28,95,88,78,29.60,29.28,14,7,0,0.79
2014-1-12,40,35,32,33,30,27,88,82,76,29.85,29.59,11,5,0,0.00
2014-1-13,49,44,37,44,38,30,94,80,64,29.70,29.52,11,5,0,0.15
2014-1-14,46,39,32,42,33,24,94,80,63,29.68,29.54,19,5,0,0.00
2014-1-15,32,26,21,24,19,14,82,73,64,29.86,29.68,15,7,0,0.00
2014-1-16,29,24,17,25,19,13,88,80,66,29.83,29.56,10,5,0,0.00
2014-1-17,34,24,8,31,20,3,91,85,76,29.83,29.56,19,6,0,0.01
2014-1-18,24,17,7,20,13,2,91,82,72,29.83,29.58,10,5,0,0.00
2014-1-19,32,27,22,24,22,18,91,80,70,29.73,29.54,13,7,0,0.02
2014-1-20,39,33,30,30,26,23,88,76,67,29.72,29.49,11,6,0,0.00
2014-1-21,30,14,0,27,10,-4,92,83,75,29.94,29.61,26,11,0,0.00
2014-1-22,13,5,-6,9,-1,-10,84,75,63,29.94,29.79,8,4,0,0.00
2014-1-23,13,4,-2,9,-2,-7,84,74,66,30.32,29.79,17,8,0,0.00
2014-1-24,19,7,-4,9,0,-8,83,73,60,30.33,29.62,13,6,0,0.00
2014-1-25,31,19,8,25,15,1,92,82,58,29.68,29.28,22,12,0,0.00
2014-1-26,39,21,1,29,13,-4,84,73,59,29.70,29.36,18,5,0,0.01
2014-1-27,39,11,-5,31,2,-12,81,69,54,30.16,29.37,25,11,0,0.00
2014-1-28,8,-3,-14,-2,-11,-18,79,70,54,30.23,30.07,6,2,0,0.00
2014-1-29,20,6,-7,8,-2,-14,76,67,53,30.10,30.05,15,4,0,0.00
2014-1-30,30,19,4,16,7,-2,75,62,46,30.06,29.72,11,4,0,0.00
2014-1-31,40,32,27,28,22,17,86,66,51,29.94,29.78,7,3,0,0.02
2014-2-1,54,40,32,40,31,24,83,70,53,29.90,29.66,7,3,0,0.00
2014-2-2,42,31,26,40,28,21,94,89,83,30.00,29.74,15,8,0,0.17
2014-2-3,28,24,18,22,19,14,86,80,70,30.13,29.90,14,7,0,0.00
2014-2-4,29,23,17,23,18,13,92,81,71,30.17,29.78,16,7,0,0.00
2014-2-5,30,25,20,29,24,19,95,94,93,30.12,29.51,9,5,0,0.00
2014-2-6,30,18,7,29,16,5,95,92,89,30.20,30.12,9,4,0,0.00
2014-2-7,22,6,-5,20,4,-9,91,88,85,30.24,30.13,8,2,0,0.00
2014-2-8,32,16,4,29,12,2,90,85,73,30.14,29.94,6,2,0,0.00
2014-2-9,29,22,14,25,19,9,93,86,76,30.01,29.84,13,5,0,0.00
2014-2-10,21,9,-1,11,4,-4,87,80,64,30.16,30.00,7,4,0,0.00
2014-2-11,14,3,-9,7,-2,-12,87,80,72,30.25,30.15,6,3,0,0.00
2014-2-12,25,9,-5,15,3,-8,87,78,65,30.18,29.80,8,4,0,0.00
2014-2-13,33,21,11,20,12,5,77,70,57,29.78,29.43,10,4,0,0.00
2014-2-14,31,27,20,27,21,17,92,79,65,29.58,29.39,17,7,0,0.00
2014-2-15,28,18,10,17,13,6,88,80,65,29.89,29.56,14,7,0,0.00
2014-2-16,29,22,15,23,17,12,89,83,76,30.10,29.76,14,5,0,0.00
2014-2-17,35,21,4,33,16,0,92,83,68,30.10,29.52,23,7,0,0.33
2014-2-18,45,38,32,32,29,26,82,71,57,29.92,29.63,21,7,0,0.19
2014-2-19,44,38,29,37,31,26,91,76,66,29.91,29.53,11,5,0,0.10
2014-2-20,58,48,30,54,42,26,93,80,72,29.88,29.35,11,5,0,0.21
2014-2-21,55,40,31,52,30,23,92,69,48,29.79,29.35,23,8,0,0.16
2014-2-22,54,40,31,38,31,22,82,70,53,29.84,29.75,10,4,0,0.00
2014-2-23,38,32,24,33,27,17,92,80,61,29.95,29.83,10,4,0,0.00
2014-2-24,33,26,20,18,16,14,80,65,48,30.04,29.94,14,7,0,0.00
2014-2-25,29,25,20,19,17,14,84,70,63,29.98,29.84,12,6,0,0.00
2014-2-26,23,18,13,15,8,6,73,64,52,29.92,29.62,16,7,0,0.00
2014-2-27,24,18,10,12,6,3,78,60,43,29.94,29.53,19,11,0,0.00
2014-2-28,32,19,5,16,8,-1,81,63,39,30.06,29.90,9,4,0,0.00
2014-3-1,50,38,20,33,26,12,78,63,53,29.97,29.87,8,3,0,0.00
2014-3-2,34,23,14,27,19,8,90,85,76,30.01,29.92,13,8,0,0.00
2014-3-3,15,11,4,8,4,-1,80,74,64,30.18,30.00,16,8,0,0.00
2014-3-4,31,17,4,18,9,-1,84,71,54,30.14,29.95,7,3,0,0.00
2014-3-5,32,23,13,22,16,9,86,75,60,30.14,29.98,13,6,0,0.00
2014-3-6,42,29,17,29,21,11,79,71,58,30.13,29.90,12,6,0,0.00
2014-3-7,56,39,24,39,30,20,85,70,50,29.90,29.73,5,2,0,0.00
2014-3-8,55,41,32,40,33,28,89,75,55,29.95,29.76,11,5,0,0.00
2014-3-9,44,35,29,32,27,22,90,72,56,30.05,29.80,9,4,0,0.00
2014-3-10,60,44,33,43,34,26,77,68,52,29.80,29.53,14,5,0,0.00
2014-3-11,69,54,43,50,43,34,81,68,49,29.56,29.42,9,3,0,0.00
2014-3-12,48,36,22,43,32,17,95,87,78,29.76,29.07,27,12,0,0.58
2014-3-13,34,25,16,23,16,9,82,69,51,29.98,29.76,14,6,0,0.00
2014-3-14,61,43,30,41,30,22,72,61,43,29.87,29.56,14,7,0,0.00
2014-3-15,56,46,35,42,34,28,88,62,37,29.92,29.67,15,8,0,0.08
2014-3-16,35,28,25,29,20,13,84,70,54,29.99,29.80,19,11,0,0.00
2014-3-17,38,28,21,27,19,13,79,68,61,29.81,29.64,15,6,0,0.00
2014-3-18,57,40,26,41,31,21,89,73,54,29.80,29.66,10,3,0,0.00
2014-3-19,52,45,37,47,41,33,92,84,74,29.77,29.56,20,7,0,0.40
2014-3-20,49,40,32,35,31,26,82,71,57,29.89,29.78,19,6,0,0.00
2014-3-21,67,50,34,40,35,30,86,62,32,29.86,29.61,9,4,0,0.00
2014-3-22,52,44,33,38,34,28,80,67,51,29.92,29.56,14,8,0,0.00
2014-3-23,37,31,21,28,21,15,84,69,48,30.08,29.92,18,8,0,0.00
2014-3-24,39,27,17,19,15,12,84,63,38,30.12,29.88,12,3,0,0.00
2014-3-25,38,29,23,27,20,16,90,70,52,29.92,29.74,17,6,0,0.00
2014-3-26,37,25,12,20,14,7,82,65,44,30.14,29.91,10,4,0,0.00
2014-3-27,53,41,24,35,24,17,77,53,37,30.04,29.61,12,6,0,0.00
2014-3-28,59,51,40,52,43,30,88,76,38,29.90,29.57,17,8,0,0.06
2014-3-29,39,36,32,36,33,30,94,90,85,29.91,29.62,23,11,0,0.72
2014-3-30,50,38,30,36,30,26,89,75,54,29.95,29.84,18,9,0,0.04
2014-3-31,65,47,30,42,34,26,86,63,37,30.01,29.81,7,3,0,0.00
2014-4-1,75,60,43,47,37,30,72,46,21,29.85,29.68,29,8,0,0.00
2014-4-2,57,49,43,50,44,36,94,84,51,29.97,29.81,11,5,0,0.33
2014-4-3,60,52,46,58,50,44,96,94,90,29.83,29.50,14,5,0,0.94
2014-4-4,66,53,40,59,50,32,97,87,74,29.73,29.34,22,8,0,0.70
2014-4-5,50,40,34,38,32,28,87,74,59,29.97,29.73,16,7,0,0.00
2014-4-6,56,46,31,40,36,28,91,67,49,29.98,29.74,13,5,0,0.00
2014-4-7,55,49,44,53,44,34,96,84,66,29.75,29.18,16,6,0,0.76
2014-4-8,61,50,42,45,42,40,95,76,47,29.61,29.23,14,8,0,0.02
2014-4-9,60,49,39,42,38,35,88,69,44,29.84,29.60,14,6,0,0.00
2014-4-10,72,56,38,48,42,33,82,61,40,29.85,29.61,14,6,0,0.00
2014-4-11,70,59,50,56,50,44,90,74,56,29.88,29.72,14,5,0,0.15
2014-4-12,78,60,41,58,49,39,91,70,48,29.98,29.67,12,4,0,0.00
2014-4-13,80,68,56,60,54,50,79,63,42,29.76,29.55,13,5,0,0.00
2014-4-14,69,61,43,60,55,41,93,80,60,29.55,29.47,16,8,0,0.48
2014-4-15,41,33,27,39,27,20,95,79,64,30.02,29.51,22,12,0,0.10
2014-4-16,49,37,22,31,26,17,82,64,44,30.20,30.02,11,5,0,0.00
2014-4-17,68,50,31,43,35,25,80,59,36,30.13,30.02,9,3,0,0.00
2014-4-18,70,56,40,47,40,34,80,58,36,30.08,29.96,10,2,0,0.00
2014-4-19,65,54,43,47,41,36,86,63,42,30.10,29.99,15,7,0,0.00
2014-4-20,78,58,39,50,41,33,78,56,33,30.05,29.88,12,3,0,0.00
2014-4-21,78,65,47,52,47,41,79,55,34,29.88,29.62,12,4,0,0.00
2014-4-22,69,60,43,57,47,33,90,66,35,29.73,29.54,21,9,0,0.00
2014-4-23,59,46,34,39,34,29,82,65,44,29.88,29.72,14,6,0,0.00
2014-4-24,65,52,40,34,29,21,76,47,21,29.94,29.60,15,6,0,0.00
2014-4-25,62,53,45,56,43,30,93,70,45,29.72,29.45,18,6,0,0.26
2014-4-26,78,59,43,52,46,38,83,64,41,29.77,29.64,17,6,0,0.00
2014-4-27,70,55,39,47,41,34,83,61,41,29.89,29.71,19,9,0,0.00
2014-4-28,62,54,47,59,48,39,96,80,58,29.71,29.49,12,6,0,0.60
2014-4-29,77,66,54,62,58,51,97,79,50,29.74,29.36,19,6,0,0.99
2014-4-30,66,58,53,59,54,48,96,88,75,29.70,29.54,10,4,0,0.44
2014-5-1,59,54,48,48,43,40,85,67,56,29.70,29.65,15,7,0,0.00
2014-5-2,58,50,42,46,42,37,85,75,65,29.71,29.65,12,4,0,0.02
2014-5-3,67,55,43,49,42,38,87,65,39,29.72,29.60,19,6,0,0.00
2014-5-4,70,57,47,49,43,38,76,61,43,29.85,29.70,17,8,0,0.00
2014-5-5,61,51,46,46,41,35,79,69,56,29.88,29.66,18,7,0,0.04
2014-5-6,72,58,44,50,44,38,82,61,41,29.80,29.71,16,8,0,0.00
2014-5-7,85,68,50,63,53,42,75,61,47,29.82,29.72,9,3,0,0.00
2014-5-8,86,72,59,67,59,53,81,65,48,29.88,29.76,16,4,0,0.00
2014-5-9,77,68,60,64,59,53,88,74,61,29.81,29.65,12,4,0,0.01
2014-5-10,68,62,56,61,58,54,96,86,74,29.82,29.71,13,3,0,0.53
2014-5-11,83,70,53,68,62,52,98,79,58,29.94,29.81,11,3,0,0.68
2014-5-12,86,73,62,72,66,61,97,81,58,29.90,29.78,11,2,0,1.10
2014-5-13,87,74,66,72,66,63,91,77,57,29.87,29.79,14,2,0,0.00
2014-5-14,78,68,62,69,64,60,96,88,70,29.88,29.70,8,3,0,0.52
2014-5-15,64,56,45,63,52,40,96,88,77,29.86,29.57,14,6,0,0.35
2014-5-16,56,47,37,47,40,36,96,80,60,29.86,29.75,12,2,0,0.12
2014-5-17,66,48,42,56,42,39,94,81,62,30.03,29.83,12,4,0,0.66
2014-5-18,64,52,37,46,40,36,96,67,41,30.10,30.01,9,2,0,0.00
2014-5-19,71,57,40,48,43,37,92,62,36,30.11,29.93,8,2,0,0.00
2014-5-20,79,66,53,64,56,43,84,69,58,29.97,29.76,12,4,0,0.01
2014-5-21,82,68,60,70,62,57,93,80,66,29.78,29.68,24,4,0,0.91
2014-5-22,77,70,62,65,60,54,93,73,56,29.85,29.70,16,8,0,0.00
2014-5-23,72,62,51,54,51,47,85,68,50,29.93,29.83,14,6,0,0.00
2014-5-24,77,64,48,58,52,45,91,66,42,30.02,29.91,8,2,0,0.01
2014-5-25,84,69,54,60,54,50,87,61,39,29.98,29.88,6,2,0,0.00
2014-5-26,87,73,55,67,60,51,85,65,48,29.95,29.80,12,3,0,0.00
2014-5-27,88,76,66,70,66,62,91,71,53,29.84,29.72,14,5,0,0.00
2014-5-28,86,75,67,68,64,62,91,72,46,29.82,29.73,11,5,0,0.05
2014-5-29,83,72,64,69,66,60,95,83,59,29.87,29.79,8,2,0,0.05
2014-5-30,84,70,58,60,55,52,83,61,34,29.95,29.87,14,5,0,0.01
2014-5-31,84,72,56,61,55,50,81,58,36,30.01,29.90,13,4,0,0.00
2014-6-1,90,74,55,68,61,51,89,65,40,29.97,29.81,6,2,0,0.00
2014-6-2,82,74,68,71,67,64,91,79,67,29.92,29.79,8,3,0,0.30
2014-6-3,85,76,68,72,68,65,93,78,61,29.80,29.71,12,6,0,0.56
2014-6-4,78,68,61,70,63,55,95,84,72,29.74,29.49,14,4,0,0.79
2014-6-5,74,65,56,61,56,52,93,75,56,29.75,29.60,12,6,0,0.00
2014-6-6,84,67,51,58,52,49,91,62,35,29.82,29.75,9,2,0,0.00
2014-6-7,83,70,54,60,56,49,88,63,42,29.87,29.67,5,2,0,0.00
2014-6-8,78,67,60,68,60,56,93,79,68,29.79,29.54,12,4,0,0.10
2014-6-9,72,65,55,62,58,52,91,80,69,29.79,29.71,8,3,0,0.00
2014-6-10,75,64,58,68,62,56,96,91,78,29.74,29.63,8,3,0,0.58
2014-6-11,79,70,64,70,65,62,96,86,74,29.66,29.54,9,3,0,0.10
2014-6-12,74,68,63,66,63,61,96,85,73,29.67,29.57,10,3,0,0.00
2014-6-13,76,68,58,64,59,50,93,75,47,29.81,29.61,13,6,0,0.01
2014-6-14,81,64,48,55,50,44,88,63,37,29.95,29.82,10,3,0,0.00
2014-6-15,87,70,50,69,58,47,94,70,49,29.94,29.82,7,2,0,0.00
2014-6-16,86,75,67,72,66,62,86,74,58,29.93,29.86,13,4,0,0.00
2014-6-17,91,84,67,74,70,66,95,65,55,29.92,29.77,16,5,0,0.00
2014-6-18,92,82,67,75,70,63,94,70,51,29.90,29.78,20,5,0,0.20
2014-6-19,83,74,67,73,69,65,94,83,70,29.93,29.81,7,2,0,0.00
2014-6-20,89,74,66,76,69,64,96,85,65,29.89,29.71,14,2,0,0.07
2014-6-21,81,73,64,70,67,61,96,84,66,29.77,29.69,10,5,0,0.01
2014-6-22,87,74,62,72,66,60,94,77,59,29.76,29.69,5,1,0,0.00
2014-6-23,92,79,65,76,69,63,93,73,54,29.77,29.68,12,2,0,0.00
2014-6-24,89,78,68,75,70,64,95,78,64,29.78,29.66,9,2,0,0.78
2014-6-25,85,75,69,72,70,67,96,84,63,29.78,29.68,12,4,0,0.08
2014-6-26,86,80,67,73,69,65,94,71,60,29.85,29.77,7,3,0,0.00
2014-6-27,88,79,67,74,69,65,93,71,53,29.89,29.84,3,1,0,0.00
2014-6-28,88,78,70,76,70,64,88,77,65,29.93,29.88,5,1,0,0.00
2014-6-29,86,77,68,74,70,67,95,80,66,29.93,29.82,10,3,0,0.00
2014-6-30,89,78,68,76,71,66,95,81,66,29.84,29.67,7,2,0,0.00
2014-7-1,91,82,66,78,73,63,92,76,62,29.69,29.57,20,4,0,0.40
2014-7-2,86,75,67,73,68,65,96,80,61,29.77,29.67,7,3,0,0.34
2014-7-3,73,67,57,66,61,53,89,82,70,29.96,29.76,10,5,0,0.00
2014-7-4,78,69,52,59,55,48,90,61,44,30.07,29.96,11,5,0,0.00
2014-7-5,82,67,49,60,53,46,90,63,40,30.13,29.93,5,1,0,0.00
2014-7-6,84,73,56,66,61,51,85,68,52,29.94,29.72,6,2,0,0.00
2014-7-7,89,74,66,73,66,60,96,77,60,29.73,29.57,14,4,0,1.52
2014-7-8,82,74,68,73,68,63,96,83,69,29.65,29.51,16,6,0,0.00
2014-7-9,83,73,62,68,64,60,93,74,53,29.78,29.64,9,4,0,0.00
2014-7-10,80,69,59,66,61,56,90,77,56,29.93,29.80,6,2,0,0.02
2014-7-11,95,72,56,69,61,54,92,70,37,30.00,29.92,4,1,0,0.00
2014-7-12,86,75,63,73,66,59,91,76,58,29.97,29.83,7,1,0,0.00
2014-7-13,87,77,70,77,70,66,94,81,71,29.80,29.71,9,4,0,0.30
2014-7-14,84,73,66,74,69,63,96,87,70,29.73,29.62,12,3,0,0.96
2014-7-15,74,67,55,64,59,51,94,77,56,29.74,29.62,10,6,0,0.09
2014-7-16,73,62,50,62,55,49,94,77,57,29.83,29.73,9,3,0,0.00
2014-7-17,82,65,50,61,54,49,94,72,40,29.94,29.82,6,2,0,0.00
2014-7-18,76,64,51,64,58,49,94,82,61,29.98,29.91,7,2,0,0.36
2014-7-19,76,66,61,67,63,60,95,88,74,29.92,29.83,4,2,0,0.21
2014-7-20,82,72,65,73,67,64,96,85,69,29.87,29.81,7,2,0,0.00
2014-7-21,88,70,62,74,65,60,96,86,58,29.91,29.83,4,1,0,0.00
2014-7-22,93,85,73,78,75,69,88,73,61,29.91,29.79,4,1,0,0.00
2014-7-23,81,73,65,73,68,62,92,84,69,29.88,29.74,11,4,0,0.00
2014-7-24,75,66,57,63,58,53,92,78,61,29.87,29.78,10,5,0,0.00
2014-7-25,81,67,50,65,58,48,93,75,56,29.90,29.74,5,1,0,0.00
2014-7-26,85,74,65,73,67,61,89,79,65,29.80,29.63,10,2,0,0.00
2014-7-27,82,74,68,73,68,62,94,84,72,29.66,29.48,14,5,0,0.00
2014-7-28,75,66,58,64,59,53,86,78,62,29.77,29.55,12,6,0,0.00
2014-7-29,73,61,51,58,54,49,94,79,58,29.84,29.73,8,3,0,0.00
2014-7-30,68,63,57,63,59,53,92,87,83,29.85,29.81,5,2,0,0.03
2014-7-31,85,70,55,70,63,54,96,80,55,29.88,29.82,6,2,0,0.01
2014-8-1,87,73,60,70,64,58,94,76,52,29.89,29.83,4,1,0,0.00
2014-8-2,77,68,61,68,63,58,93,84,72,29.94,29.85,10,2,0,0.02
2014-8-3,85,70,56,70,63,55,95,81,59,29.92,29.85,8,2,0,0.01
2014-8-4,88,72,58,70,62,56,96,74,47,29.93,29.84,6,1,0,0.00
2014-8-5,86,72,58,72,64,55,90,76,56,29.87,29.78,8,2,0,0.00
2014-8-6,81,71,61,72,64,58,90,80,70,29.83,29.75,10,3,0,0.02
2014-8-7,79,67,56,63,58,53,90,74,50,29.91,29.84,8,3,0,0.00
2014-8-8,82,70,58,69,61,55,90,76,57,29.90,29.82,10,3,0,0.00
2014-8-9,83,72,59,72,65,56,90,79,69,29.88,29.78,9,3,0,0.00
2014-8-10,86,74,63,74,68,61,95,82,68,29.85,29.76,8,3,0,0.00
2014-8-11,85,74,67,76,70,65,95,88,72,29.78,29.60,10,2,0,0.95
2014-8-12,77,70,63,70,65,58,96,87,74,29.72,29.59,14,6,0,0.00
2014-8-13,80,67,58,62,59,55,94,78,52,29.84,29.73,10,5,0,0.03
2014-8-14,77,67,56,61,58,53,91,75,55,29.85,29.76,8,3,0,0.00
2014-8-15,80,63,48,59,52,46,94,72,39,29.86,29.76,7,2,0,0.00
2014-8-16,79,64,47,67,58,44,92,80,49,29.82,29.74,9,2,0,0.02
2014-8-17,80,72,63,71,66,61,95,84,72,29.79,29.71,5,1,0,0.00
2014-8-18,84,72,63,74,68,61,95,85,67,29.73,29.59,7,2,0,0.02
2014-8-19,88,76,63,76,70,62,96,82,64,29.67,29.60,6,1,0,0.00
2014-8-20,86,75,63,75,69,61,94,83,65,29.82,29.63,11,3,0,0.15
2014-8-21,78,71,66,72,68,64,95,91,82,29.92,29.82,8,2,0,0.65
2014-8-22,84,74,68,77,71,66,96,90,80,29.84,29.76,16,2,0,0.56
2014-8-23,85,76,68,76,71,66,96,86,73,29.83,29.75,7,2,0,0.00
2014-8-24,86,75,66,75,70,64,96,84,66,29.87,29.79,7,2,0,0.00
2014-8-25,86,74,65,77,70,64,96,86,71,29.90,29.84,6,1,0,0.00
2014-8-26,90,76,63,77,70,62,96,81,61,29.97,29.86,5,1,0,0.00
2014-8-27,89,77,67,78,71,64,92,83,68,29.91,29.81,6,2,0,0.00
2014-8-28,80,70,62,67,64,60,95,81,63,29.92,29.85,11,3,0,0.00
2014-8-29,87,72,57,72,64,55,94,77,56,29.92,29.80,7,2,0,0.00
2014-8-30,91,77,67,75,69,64,93,79,58,29.88,29.81,8,2,0,0.02
2014-8-31,80,72,68,74,70,66,96,91,79,29.87,29.80,8,2,0,1.40
2014-9-1,86,76,68,79,72,67,96,89,75,29.82,29.71,12,3,0,0.05
2014-9-2,80,72,65,73,69,63,96,90,79,29.81,29.72,10,3,0,0.32
2014-9-3,87,72,61,72,66,60,97,83,49,29.90,29.79,4,1,0,0.00
2014-9-4,88,74,59,75,68,58,96,82,61,29.92,29.84,6,1,0,0.00
2014-9-5,90,78,67,79,73,66,96,85,69,29.94,29.79,8,2,0,0.00
2014-9-6,76,69,58,70,66,57,94,88,76,29.92,29.81,10,3,0,0.00
2014-9-7,76,64,52,62,56,52,97,78,50,30.01,29.92,9,3,0,0.00
2014-9-8,79,65,52,69,60,50,95,84,70,29.94,29.82,9,2,0,0.00
2014-9-9,83,70,60,69,63,59,96,79,50,29.90,29.78,9,1,0,0.00
2014-9-10,83,72,61,75,68,59,95,86,75,29.80,29.60,10,3,0,0.00
2014-9-11,76,66,55,71,62,53,96,87,72,29.94,29.58,11,6,0,0.42
2014-9-12,65,59,54,57,55,52,93,85,72,30.01,29.92,9,3,0,0.00
2014-9-13,65,58,48,55,51,44,94,80,55,30.10,29.90,14,4,0,0.00
2014-9-14,72,56,44,53,48,42,95,78,48,30.13,29.99,9,2,0,0.00
2014-9-15,73,58,42,58,51,41,96,81,54,30.02,29.81,7,2,0,0.04
2014-9-16,62,56,49,56,53,47,96,88,75,29.96,29.88,7,3,0,0.06
2014-9-17,68,55,45,55,50,44,96,82,57,29.89,29.77,7,2,0,0.00
2014-9-18,73,58,46,56,49,44,94,76,46,29.94,29.80,10,2,0,0.00
2014-9-19,77,60,45,57,50,44,97,75,40,30.01,29.87,12,2,0,0.01
2014-9-20,83,67,52,69,61,49,97,83,62,29.91,29.73,10,2,0,0.00
2014-9-21,78,69,54,69,59,45,93,75,32,29.81,29.59,17,8,0,0.00